Вернуться в каталог

THORAD DELTA 1 DEB

АктивенLEO
NORAD 42602·DEBRIS·🇺🇸 United States

Запущен Nov 15, 1974 с Vandenberg Space Force Base

Loading…

Ближайшие Пролёты (ближайшие 24 часа)

TLE

УстаревшееSource: Space-Track

Эпоха: Aug 24, 2026, 02:14 UTC

1 42602U 74089FT  26236.09339267  .00000410  00000-0  41121-2 0  9996
2 42602 101.4357 186.9554 0324650 341.0955  17.8271 12.11472978978330

Отслеживайте THORAD DELTA 1 DEB в реальном времени с AllMySat

Download on the App Store